Dryden, TX

9:30 PM CDT on May 22, 2018 (GMT -0500)
Dryden

Weather History for K6R6 - December, 2012

Change the Weather History Date:

Sunday, December 30, 2012

  Actual Average (KFST) Record (KFST)
Temperature  
Mean Temperature 40 °F -  
Max Temperature 44 °F 58 °F 75 °F (2004)
Min Temperature 36 °F 34 °F 23 °F (2014)
Degree Days  
Heating Degree Days 25    
Moisture  
Dew Point 23 °F    
Average Humidity 49    
Maximum Humidity 82    
Minimum Humidity 34    
Precipitation  
Precipitation 0.03 in - - ()
Sea Level Pressure  
Sea Level Pressure 30.15 in    
Wind  
Wind Speed 8 mph (East)    
Max Wind Speed 16 mph    
Max Gust Speed 21 mph    
Averages and records for this station are not official NWS values.
T = Trace of Precipitation, MM = Missing Value Source: NWS Daily Summary

Daily Weather History Graph

Daily Weather History Graph

Search for Another Location

Airport or City:

Astronomy

Dec. 30, 2012 Rise Set
Actual Time 7:44 AM CST 5:59 PM CST
Civil Twilight 7:18 AM CST 6:25 PM CST
Nautical Twilight 6:48 AM CST 6:55 PM CST
Astronomical Twilight 6:19 AM CST 7:24 PM CST
Moon 8:20 PM CST (12/30) 9:04 AM CST (12/30)
Length of Visible Light 11h 07m
Length of Day
10h 14m
Waning Gibbous, 95% of the Moon is Illuminated
Dec 30
Waning Gibbous
Jan 4
Last Quarter
Jan 11
New
Jan 18
First Quarter
Jan 26
Full

Hourly Weather History & Observations

Time (CST) Temp. Windchill Dew Point Humidity Pressure Visibility Wind Dir Wind Speed Gust Speed Precip Events Conditions
12:53 AM 41.0 °F 36.4 °F 17.1 °F 38% 30.26 in - East 6.9 mph - N/A   Unknown
1:53 AM 39.9 °F 35.8 °F 16.0 °F 38% 30.24 in - East 5.8 mph - N/A   Unknown
2:53 AM 37.9 °F 34.4 °F 16.0 °F 41% 30.24 in - ENE 4.6 mph - N/A   Unknown
3:53 AM 36.0 °F 31.1 °F 15.1 °F 43% 30.22 in - NE 5.8 mph - N/A   Unknown
4:53 AM 37.0 °F 31.6 °F 16.0 °F 42% 30.21 in - NNE 6.9 mph - N/A   Unknown
5:53 AM 37.0 °F 33.3 °F 16.0 °F 42% 30.21 in - North 4.6 mph - N/A   Unknown
6:53 AM 39.0 °F 36.8 °F 16.0 °F 39% 30.23 in - East 3.5 mph - N/A   Unknown
7:53 AM 39.0 °F 34.8 °F 15.1 °F 38% 30.23 in - East 5.8 mph - N/A   Unknown
8:53 AM 43.0 °F 37.7 °F 16.0 °F 34% 30.21 in - East 9.2 mph - N/A   Unknown
9:53 AM 44.1 °F 36.8 °F 18.0 °F 35% 30.22 in - ESE 16.1 mph 20.7 mph N/A   Unknown
10:53 AM 43.0 °F 35.4 °F 24.1 °F 47% 30.23 in - ESE 16.1 mph 19.6 mph N/A   Unknown
11:53 AM 41.0 °F 34.3 °F 25.0 °F 53% 30.21 in - ESE 11.5 mph 20.7 mph N/A   Unknown
12:53 PM 41.0 °F 35.2 °F 24.1 °F 51% 30.17 in - ESE 9.2 mph - N/A   Unknown
1:53 PM 42.1 °F 37.1 °F 23.0 °F 47% 30.14 in - ESE 8.1 mph - N/A   Unknown
2:53 PM 43.0 °F 37.2 °F 21.9 °F 43% 30.11 in - ESE 10.4 mph - N/A   Unknown
3:53 PM 43.0 °F 36.4 °F 21.9 °F 43% 30.08 in - ESE 12.7 mph - N/A   Unknown
4:53 PM 44.1 °F 38.6 °F 19.9 °F 38% 30.07 in - SE 10.4 mph - N/A   Unknown
5:53 PM 44.1 °F 37.7 °F 19.9 °F 38% 30.06 in - ESE 12.7 mph - N/A   Unknown
6:53 PM 44.1 °F 40.8 °F 21.0 °F 40% 30.06 in - East 5.8 mph - N/A   Unknown
7:53 PM 42.1 °F 39.2 °F 32.0 °F 67% 30.07 in - East 4.6 mph - 0.01 in   Unknown
8:53 PM 41.0 °F 37.1 °F 35.1 °F 79% 30.07 in - ENE 5.8 mph - 0.01 in   Unknown
9:53 PM 42.1 °F 38.4 °F 37.0 °F 82% 30.06 in - ENE 5.8 mph - N/A   Unknown
10:53 PM 42.1 °F 39.2 °F 37.0 °F 82% 30.06 in - ENE 4.6 mph - N/A   Unknown
11:53 PM 43.0 °F 36.8 °F 37.9 °F 82% 30.04 in - East 11.5 mph - 0.01 in   Unknown